Kecskemet, Hungary

4:09 AM CET on March 25, 2017 (GMT +0100)
Kecskemet

Weather History for LHKE - January, 2013

Change the Weather History Date:

Monday, January 14, 2013

  Actual Average (LHBP) Record (LHBP)
Temperature  
Mean Temperature 32 °F -  
Max Temperature 39 °F 36 °F 57 °F (2007)
Min Temperature 26 °F 24 °F 17 °F (2001)
Degree Days  
Heating Degree Days 32    
Moisture  
Dew Point 30 °F    
Average Humidity 87    
Maximum Humidity 100    
Minimum Humidity 75    
Precipitation  
Precipitation 0.00 in - - ()
Sea Level Pressure  
Sea Level Pressure 29.97 in    
Wind  
Wind Speed 13 mph ()    
Max Wind Speed 18 mph    
Max Gust Speed -    
Visibility 3.8 miles    
Events Rain , Snow    
Averages and records for this station are not official NWS values.
T = Trace of Precipitation, MM = Missing Value Source: Averaged Metar Reports

Daily Weather History Graph

Daily Weather History Graph

Search for Another Location

Airport or City:

Trip Planner

Search our weather history database for the weather conditions in past years. The results will help you decide how hot, cold, wet, or windy it might be!

Date:

Astronomy

Jan. 14, 2013 Rise Set
Actual Time 7:22 AM CET 4:17 PM CET
Civil Twilight 6:48 AM CET 4:52 PM CET
Nautical Twilight 6:10 AM CET 5:30 PM CET
Astronomical Twilight 5:34 AM CET 6:06 PM CET
Moon 8:31 AM CET (1/14) 7:59 PM CET (1/14)
Length of Visible Light 10h 03m
Length of Day
8h 55m
Waxing Crescent, 9% of the Moon is Illuminated
Jan 14
Waxing Crescent
Jan 19
First Quarter
Jan 27
Full
Feb 3
Last Quarter
Feb 10
New

Hourly Weather History & Observations

Time (CET) Temp. Windchill Dew Point Humidity Pressure Visibility Wind Dir Wind Speed Gust Speed Precip Events Conditions
12:15 AM 28.4 °F 16.7 °F 24.8 °F 86% 30.04 in 4.3 mi NE 15.7 mph - N/A   Overcast
12:45 AM 28.4 °F 16.7 °F 24.8 °F 86% 30.04 in 4.3 mi NE 15.7 mph - N/A   Unknown
1:15 AM 28.4 °F 17.6 °F 24.8 °F 86% 30.04 in 4.3 mi ENE 13.4 mph - N/A   Overcast
1:45 AM 28.4 °F 16.7 °F 24.8 °F 86% 30.04 in 5.0 mi ENE 15.7 mph - N/A   Overcast
2:15 AM 28.4 °F 16.7 °F 24.8 °F 86% 30.04 in 5.0 mi ENE 15.7 mph - N/A   Overcast
2:45 AM 28.4 °F 16.7 °F 24.8 °F 86% 30.04 in 5.0 mi ENE 15.7 mph - N/A   Overcast
2:59 AM 28.4 °F 16.7 °F 24.8 °F 86% 30.04 in 3.1 mi ENE 15.7 mph - N/A Snow Light Snow
3:15 AM 28.4 °F 15.9 °F 24.8 °F 86% 30.04 in 3.1 mi ENE 17.9 mph - N/A Snow Light Snow
3:22 AM 28.4 °F 16.7 °F 24.8 °F 86% 30.04 in 1.9 mi ENE 15.7 mph - N/A Snow Snow
3:30 AM 28.4 °F 16.7 °F 24.8 °F 86% 30.04 in 0.9 mi ENE 15.7 mph - N/A Snow Snow
3:45 AM 26.6 °F 14.4 °F 24.8 °F 93% 30.01 in 0.9 mi ENE 15.7 mph - N/A Snow Snow
4:15 AM 26.6 °F 14.4 °F 26.6 °F 100% 30.01 in 1.9 mi ENE 15.7 mph - N/A Snow Light Snow
4:45 AM 26.6 °F 14.4 °F 26.6 °F 100% 30.01 in 1.9 mi ENE 15.7 mph - N/A Snow Light Snow
5:15 AM 28.4 °F 17.6 °F 26.6 °F 93% 30.01 in 2.5 mi ENE 13.4 mph - N/A Snow Light Snow
5:45 AM - - - N/A% - 3.7 mi East 13.4 mph - N/A   Overcast
6:15 AM 28.4 °F 16.7 °F 26.6 °F 93% 29.98 in 2.5 mi ENE 15.7 mph - N/A Snow Light Snow
6:45 AM 28.4 °F 16.7 °F 26.6 °F 93% 29.98 in 3.1 mi ENE 15.7 mph - N/A Rain Light Freezing Rain
7:15 AM 28.4 °F 17.6 °F 26.6 °F 93% 30.01 in 3.1 mi ENE 13.4 mph - N/A Rain Light Freezing Rain
7:45 AM 28.4 °F 17.6 °F 26.6 °F 93% 30.01 in 3.1 mi ENE 13.4 mph - N/A Rain Light Freezing Rain
8:15 AM 30.2 °F 20.9 °F 28.4 °F 93% 30.01 in 5.0 mi ENE 11.2 mph - N/A   Unknown
8:45 AM - - - N/A% - 3.1 mi SE 15.7 mph - N/A Rain Light Rain
9:15 AM 30.2 °F 19.9 °F 28.4 °F 93% 29.98 in 5.0 mi ENE 13.4 mph - N/A   Overcast
9:45 AM 32.0 °F 22.2 °F 28.4 °F 87% 29.98 in 6.2 mi ENE 13.4 mph - N/A   Overcast
10:15 AM 33.8 °F 24.5 °F 28.4 °F 81% 29.98 in - East 13.4 mph - N/A   Clear
10:45 AM 33.8 °F 24.5 °F 28.4 °F 81% 29.98 in - East 13.4 mph - N/A   Clear
11:45 AM - - - N/A% - 3.1 mi SE 15.7 mph - N/A Rain Light Rain
12:15 PM 37.4 °F 28.3 °F 30.2 °F 75% 29.95 in - ESE 15.7 mph - N/A   Clear
12:45 PM 39.2 °F 31.3 °F 32.0 °F 75% 29.95 in - ESE 13.4 mph - N/A   Clear
1:15 PM 39.2 °F 31.3 °F 32.0 °F 75% 29.95 in - ESE 13.4 mph - N/A   Clear
1:45 PM 39.2 °F 31.3 °F 32.0 °F 75% 29.92 in - ESE 13.4 mph - N/A   Clear
2:15 PM 39.2 °F 30.6 °F 32.0 °F 75% 29.95 in - ESE 15.7 mph - N/A   Clear
2:45 PM - - - N/A% - 5.0 mi SE 15.7 mph - N/A Rain Light Rain
2:49 PM 39.2 °F 30.6 °F 33.8 °F 81% 29.92 in 6.2 mi ESE 15.7 mph - N/A Rain Light Rain
3:15 PM 39.2 °F 30.6 °F 33.8 °F 81% 29.92 in 6.2 mi ESE 15.7 mph - N/A Rain Light Rain
3:45 PM 39.2 °F 31.3 °F 33.8 °F 81% 29.92 in 6.2 mi ESE 13.4 mph - N/A Rain Light Rain
3:55 PM 39.2 °F 32.2 °F 33.8 °F 81% 29.92 in 3.1 mi SE 11.2 mph - N/A Rain Rain
4:05 PM - - - N/A% - 1.9 mi SE 15.7 mph - N/A Rain Rain
4:15 PM 39.2 °F 32.2 °F 35.6 °F 87% 29.92 in 6.2 mi ESE 11.2 mph - N/A Rain Light Rain
4:45 PM 39.2 °F 32.2 °F 33.8 °F 81% 29.92 in - ESE 11.2 mph - N/A   Clear
5:15 PM 39.2 °F 32.2 °F 33.8 °F 81% 29.92 in - SE 11.2 mph - N/A   Clear
5:45 PM - - - N/A% - 1.9 mi SE 8.9 mph - N/A Rain Rain
6:15 PM 39.2 °F 33.1 °F 33.8 °F 81% 29.92 in 6.2 mi SE 8.9 mph - N/A   Overcast
6:22 PM 39.2 °F 33.1 °F 33.8 °F 81% 29.92 in 5.0 mi SE 8.9 mph - N/A Rain Light Rain
6:45 PM 39.2 °F 33.1 °F 33.8 °F 81% 29.92 in 6.2 mi SE 8.9 mph - N/A Rain Light Rain
7:15 PM 37.4 °F 32.2 °F 35.6 °F 93% 29.92 in 6.2 mi ESE 6.7 mph - N/A Rain Light Rain
7:45 PM 37.4 °F 32.2 °F 35.6 °F 93% 29.89 in 5.0 mi ESE 6.7 mph - N/A Rain Light Rain
8:15 PM 35.6 °F 31.8 °F 35.6 °F 100% 29.89 in 3.7 mi East 4.5 mph - N/A Rain Light Rain
8:45 PM - - - N/A% - 3.7 mi SE 8.9 mph - N/A Rain Light Rain
9:15 PM 39.2 °F 36.0 °F 37.4 °F 93% 29.89 in 3.7 mi East 4.5 mph - N/A Rain Light Rain
9:45 PM 37.4 °F - 35.6 °F 93% 29.89 in 3.1 mi East 2.2 mph - N/A Rain Rain
10:15 PM 37.4 °F - 37.4 °F 100% 29.89 in 1.9 mi ENE 2.2 mph - N/A Rain Rain
10:45 PM 35.6 °F - 35.6 °F 100% 29.89 in 1.6 mi ENE 2.2 mph - N/A Rain Light Rain
11:15 PM 39.2 °F 36.0 °F 39.2 °F 100% 29.89 in 3.1 mi SSE 4.5 mph - N/A Rain Light Rain
11:45 PM - - - N/A% - 3.7 mi North - - N/A Rain Light Rain